Wind_Speed
3 4 5 6 7 7 8 9 9 9 9 8 8 9 9 8 8 8 8 8 8 8 8 8 8 8 8 8 7 8 8 8 9 9 9 9 9 9 9 9 9 9 9
3 4 4 6 6 7 8 9 9 9 9 9 9 9 9 9 9 9 9 9 9 8 8 8 8 8 9 9 8 8 8 9 10 10 10 10 10 10 10 10 10 10 11
3 3 5 6 6 7 7 7 8 9 9 10 10 10 10 9 9 10 9 9 9 9 9 9 8 9 9 10 9 9 9 10 10 10 10 11 11 11 11 11 11 12 12
3 4 4 5 6 7 6 6 8 9 10 10 10 10 10 10 10 10 10 10 10 10 10 10 10 9 10 10 10 11 10 10 11 11 11 11 11 11 11 12 13 13 12
2 3 5 5 6 6 7 7 8 8 10 10 10 10 10 10 10 9 9 10 10 11 11 11 10 10 10 10 11 11 11 11 11 12 12 12 12 11 11 11 13 13 13
2 2 4 4 5 6 7 7 7 7 8 9 9 10 10 10 10 10 10 10 10 11 11 11 11 10 11 11 11 11 11 10 10 11 11 12 11 11 11 11 12 13 12
1 2 2 3 4 5 6 7 7 7 8 8 9 9 10 10 10 10 10 10 11 11 11 12 12 11 11 10 10 10 10 10 10 11 11 11 12 12 12 12 12 13 13
2 2 3 3 4 5 6 6 7 7 8 8 9 9 10 10 11 12 12 11 11 11 11 12 12 11 11 11 10 11 11 12 12 12 12 14 14 13 14 14 14 14 14
4 4 4 5 5 5 6 6 6 7 8 9 9 10 10 10 11 11 11 11 11 11 12 12 11 11 11 12 12 12 13 13 13 14 15 15 15 15 15 15 15 15 15
5 5 6 6 5 5 6 7 7 8 8 8 9 10 10 11 11 10 10 10 11 12 12 12 12 12 12 12 13 13 14 14 15 15 15 16 16 16 16 16 16 16 16
6 7 7 7 7 7 7 7 8 8 9 9 10 11 11 11 12 12 11 12 13 13 13 13 14 14 14 14 14 14 15 15 16 16 17 17 17 18 17 17 17 17 18
7 7 8 8 8 8 8 8 8 9 10 10 11 11 12 12 12 13 14 14 14 15 15 15 15 15 16 16 16 16 16 16 16 17 18 18 18 18 18 18 19 19 19
9 9 9 9 9 9 9 9 9 10 10 11 12 12 13 13 14 15 15 15 16 16 16 16 16 17 17 18 17 17 18 18 18 18 18 18 18 19 19 20 20 19 19
10 10 10 10 10 10 10 11 11 11 11 12 12 13 14 14 15 16 16 17 17 17 17 18 18 19 19 18 18 19 19 19 20 20 19 20 20 20 20 20 20 20 20
12 12 12 11 11 11 12 12 12 12 13 13 14 14 15 17 17 18 18 18 18 18 18 19 20 20 20 20 20 20 20 20 21 21 21 21 21 21 21 21 21 21 21
13 14 14 13 13 13 13 14 14 14 15 15 15 16 16 17 17 18 19 19 19 19 19 20 20 20 21 21 21 21 22 22 23 23 23 22 21 21 21 22 22 22 22
15 15 14 15 15 15 15 15 16 16 17 17 17 17 17 18 18 18 19 19 20 20 20 21 21 21 22 22 23 23 24 24 24 24 24 23 23 23 23 22 23 23 24
15 15 15 15 15 16 17 17 17 17 17 17 17 17 17 18 19 19 20 20 20 21 21 22 23 24 24 24 25 25 25 25 25 25 25 25 25 25 25 24 24 25 25
16 16 16 17 17 17 18 18 18 19 19 19 19 19 19 20 20 21 21 21 21 22 22 23 24 25 25 25 26 26 27 27 27 27 27 27 27 27 27 26 26 26 26
17 18 18 19 19 19 19 19 20 20 20 20 21 21 21 21 21 21 22 22 23 23 24 25 25 25 26 26 27 27 27 27 27 28 28 27 27 28 28 27 27 27 27
19 20 20 21 21 21 21 22 22 22 22 23 23 23 23 23 23 23 23 24 25 25 26 26 26 26 26 27 27 27 28 28 28 28 28 28 29 29 30 30 30 29 29
22 22 22 23 23 22 23 24 24 24 25 25 25 26 26 25 25 24 24 25 26 26 27 27 27 27 27 27 28 28 29 29 29 29 30 30 30 31 31 31 32 32 32
24 25 24 25 25 25 25 26 26 26 26 27 28 27 27 27 27 27 27 27 27 28 28 28 28 28 28 29 30 30 30 31 31 31 31 31 32 32 32 32 33 33 33
26 26 26 26 26 26 27 27 28 27 27 27 28 28 28 28 29 29 29 29 29 29 29 29 29 29 29 30 31 31 31 32 32 32 33 33 33 34 33 33 33 33 33
27 27 28 28 28 28 28 28 28 28 28 28 28 28 28 29 29 29 29 29 29 30 30 30 30 31 31 31 31 33 33 33 33 33 34 34 34 34 34 33 33 34 34
27 27 28 28 28 28 27 27 28 28 28 28 28 29 29 29 29 29 30 30 30 30 30 30 30 31 32 32 32 32 33 33 33 34 34 35 35 35 34 34 34 34 34
Wind_Direction
202 206 207 203 207 212 211 213 214 220 225 233 232 232 234 235 241 244 244 244 245 248 250 257 262 255 258 260 263 262 262 260 262 265 269 272 275 274 274 276 278 281 280
213 210 213 211 212 212 212 215 215 223 230 236 236 238 239 238 242 248 250 249 251 253 256 255 260 259 258 261 264 265 267 263 264 267 271 273 273 271 273 274 276 276 278
230 232 230 221 216 217 218 223 225 229 234 239 241 241 241 242 246 247 248 249 251 253 257 257 259 263 265 265 268 268 269 269 267 269 273 276 274 271 273 272 273 275 279
242 238 235 231 226 225 227 230 233 237 240 241 244 242 242 242 243 247 249 249 250 253 257 258 263 268 270 267 269 271 272 271 271 272 276 279 277 274 274 274 274 274 279
253 244 241 248 241 241 240 245 246 245 246 245 243 240 242 242 244 247 250 251 252 251 256 261 264 269 270 269 270 273 274 273 273 273 275 275 274 276 278 281 278 275 278
264 264 261 262 249 249 249 253 252 250 249 247 243 241 242 243 244 248 250 252 252 251 257 263 264 271 272 270 270 273 274 273 272 271 275 277 277 277 279 281 277 275 279
292 282 275 271 264 259 256 257 257 251 250 247 243 240 242 245 246 250 251 253 253 254 261 268 269 274 274 271 272 276 277 275 272 272 275 278 280 277 278 280 280 277 278
316 312 301 288 278 272 267 265 260 251 250 249 245 242 245 251 253 253 253 252 255 259 265 268 271 274 272 274 276 277 276 277 277 278 276 276 277 276 279 279 279 278 279
311 309 308 296 289 286 280 272 259 255 252 250 247 246 249 254 257 258 257 254 255 261 267 270 271 273 274 274 275 275 274 275 278 280 278 275 275 275 277 278 278 278 279
306 302 299 293 289 282 277 270 264 260 256 251 248 250 254 257 261 262 261 258 258 262 265 268 270 272 277 277 274 275 274 275 277 279 280 278 276 276 276 278 278 279 279
297 295 290 288 284 277 278 278 269 264 259 257 255 254 257 260 260 260 260 262 263 264 265 268 270 273 275 276 276 276 275 276 277 279 279 277 277 278 280 280 281 280 279
292 293 288 285 285 279 276 274 273 270 265 264 261 262 265 264 262 262 263 264 265 267 267 268 271 273 275 276 276 276 277 278 278 279 279 278 277 278 280 281 281 280 279
296 290 286 283 282 279 277 277 275 274 269 269 266 266 263 264 264 265 266 266 265 266 268 269 272 273 274 275 276 276 278 278 279 280 279 278 278 279 280 280 280 280 280
301 300 293 282 282 280 280 279 277 274 274 272 268 268 267 267 267 267 268 269 269 268 270 271 271 272 273 276 276 277 278 280 278 279 279 278 277 278 280 280 279 280 279
295 298 297 290 282 280 281 282 280 277 277 278 273 271 272 270 270 269 269 270 272 271 271 272 272 272 273 275 275 276 277 279 280 279 279 279 279 278 279 280 281 280 278
288 291 290 291 287 281 281 281 280 278 278 278 277 275 274 274 274 273 272 273 275 276 273 274 275 272 272 275 276 277 277 278 278 278 278 278 278 278 277 278 279 279 279
287 289 288 288 290 291 286 283 281 276 276 276 277 276 276 275 275 275 275 275 276 276 275 278 280 280 277 277 278 278 278 278 277 277 276 276 277 278 278 278 278 278 278
287 287 287 287 286 287 287 286 282 279 277 278 279 279 279 278 276 275 275 275 276 277 277 279 280 281 281 282 281 280 280 279 277 277 276 276 276 277 277 277 277 277 277
287 286 285 285 284 283 283 284 283 281 278 278 278 280 280 280 279 277 276 275 276 277 278 279 281 281 281 281 280 280 279 280 278 277 276 277 276 277 276 276 277 277 277
288 287 285 285 283 281 281 281 280 279 278 279 280 281 281 281 280 278 277 278 278 279 279 279 280 280 281 281 280 279 279 279 279 278 277 278 278 278 277 277 277 277 276
288 287 285 285 284 283 281 278 277 277 276 277 279 280 281 280 280 280 278 277 279 281 281 281 280 280 281 280 280 278 277 278 278 279 280 280 280 278 278 277 278 278 278
288 288 286 285 283 282 281 277 276 275 275 275 277 278 279 279 279 279 279 278 278 280 282 282 281 281 281 281 281 279 278 277 278 279 279 279 280 279 278 278 278 278 279
288 287 286 285 283 281 280 278 277 276 274 274 276 277 277 277 278 278 279 279 279 280 281 281 280 279 279 281 281 281 281 280 280 281 281 281 281 280 280 279 279 279 278
289 287 285 284 283 281 280 280 279 278 277 276 277 277 277 277 277 277 278 279 279 280 281 281 280 278 278 279 280 280 280 280 281 281 281 282 282 282 282 282 282 282 280
287 287 287 286 286 284 283 280 279 278 276 276 277 278 279 278 279 279 279 280 280 280 281 280 280 279 279 279 280 280 280 280 281 281 281 282 282 282 281 282 283 281 280
288 288 288 288 287 285 283 281 280 280 279 278 278 280 280 279 279 279 280 280 280 280 281 281 281 279 280 280 280 280 279 280 280 281 281 281 281 281 281 281 282 281 279
Height
5883 5883 5883 5884 5885 5886 5887 5889 5890 5892 5893 5893 5894 5895 5896 5896 5897 5897 5897 5898 5898 5898 5898 5898 5897 5897 5897 5897 5897 5897 5897 5897 5897 5897 5896 5896 5896 5896 5896 5895 5895 5895 5894
5883 5883 5884 5884 5885 5886 5887 5888 5889 5890 5891 5892 5893 5894 5894 5895 5895 5896 5896 5896 5896 5896 5896 5896 5896 5896 5896 5896 5895 5895 5895 5895 5895 5895 5895 5894 5894 5894 5894 5893 5893 5892 5892
5883 5883 5883 5884 5884 5885 5886 5887 5888 5889 5890 5890 5891 5892 5893 5893 5894 5894 5894 5895 5895 5895 5895 5894 5894 5894 5894 5894 5894 5894 5894 5893 5893 5893 5893 5892 5892 5891 5891 5891 5890 5890 5890
5883 5883 5883 5883 5884 5884 5885 5886 5886 5887 5888 5888 5889 5890 5891 5892 5892 5893 5893 5893 5893 5893 5893 5893 5893 5893 5892 5892 5892 5891 5891 5891 5891 5891 5890 5890 5889 5889 5889 5888 5888 5887 5887
5883 5883 5883 5883 5883 5883 5884 5884 5885 5885 5886 5886 5887 5888 5889 5889 5890 5891 5891 5891 5890 5891 5891 5891 5890 5890 5890 5890 5890 5889 5889 5889 5888 5888 5888 5887 5887 5886 5886 5885 5885 5885 5884
5883 5882 5882 5882 5882 5882 5883 5883 5883 5883 5884 5884 5884 5886 5887 5887 5888 5888 5889 5888 5888 5888 5888 5888 5888 5888 5887 5887 5887 5887 5887 5886 5886 5885 5885 5884 5884 5883 5883 5883 5882 5882 5881
5882 5882 5882 5882 5882 5882 5881 5882 5882 5882 5882 5882 5883 5884 5884 5885 5886 5886 5886 5886 5886 5886 5886 5886 5886 5885 5885 5885 5885 5884 5884 5884 5883 5883 5882 5882 5881 5881 5880 5880 5879 5879 5879
5882 5882 5881 5881 5881 5881 5880 5880 5880 5880 5881 5881 5881 5882 5883 5884 5883 5884 5884 5884 5884 5884 5884 5884 5883 5883 5882 5882 5882 5882 5882 5881 5881 5880 5879 5879 5878 5878 5877 5877 5876 5876 5875
5882 5881 5881 5880 5880 5879 5879 5879 5879 5879 5879 5879 5880 5880 5881 5881 5881 5881 5881 5881 5881 5881 5881 5881 5881 5880 5880 5879 5880 5879 5879 5878 5878 5877 5876 5876 5875 5875 5874 5874 5873 5873 5872
5881 5881 5880 5880 5879 5878 5878 5877 5877 5877 5878 5878 5878 5878 5879 5879 5879 5879 5879 5878 5878 5878 5878 5878 5878 5877 5877 5877 5877 5876 5876 5875 5874 5874 5873 5872 5871 5871 5870 5870 5869 5869 5868
5880 5879 5879 5878 5877 5877 5876 5876 5876 5876 5876 5876 5876 5876 5876 5876 5876 5876 5876 5876 5876 5875 5875 5875 5874 5874 5874 5873 5873 5873 5872 5872 5871 5870 5869 5868 5867 5867 5866 5866 5865 5865 5864
5879 5878 5877 5876 5876 5875 5875 5874 5874 5874 5873 5873 5873 5873 5873 5873 5873 5873 5873 5873 5872 5872 5871 5871 5871 5871 5870 5870 5869 5869 5869 5868 5867 5866 5865 5864 5863 5863 5862 5861 5861 5860 5859
5877 5876 5875 5874 5874 5873 5873 5872 5872 5871 5871 5870 5870 5870 5870 5869 5869 5869 5869 5869 5868 5868 5867 5867 5867 5866 5866 5865 5865 5865 5864 5863 5863 5862 5861 5860 5859 5858 5858 5857 5856 5855 5854
5875 5874 5873 5872 5872 5871 5870 5870 5869 5869 5868 5867 5867 5866 5866 5866 5865 5865 5865 5864 5864 5864 5863 5863 5862 5862 5861 5861 5860 5860 5859 5859 5858 5857 5856 5855 5854 5853 5853 5852 5851 5850 5849
5872 5871 5870 5869 5869 5868 5867 5867 5866 5865 5865 5864 5863 5863 5862 5861 5861 5860 5860 5859 5859 5859 5858 5858 5857 5857 5856 5856 5855 5855 5854 5853 5852 5852 5851 5850 5849 5848 5847 5846 5845 5845 5844
5869 5869 5868 5866 5865 5864 5864 5863 5862 5862 5861 5860 5860 5859 5858 5857 5856 5856 5855 5854 5854 5854 5853 5853 5852 5852 5851 5850 5850 5849 5848 5847 5847 5846 5845 5844 5843 5842 5841 5841 5840 5839 5838
5866 5865 5864 5863 5862 5861 5860 5859 5858 5858 5857 5856 5855 5854 5853 5852 5852 5851 5850 5849 5849 5848 5848 5847 5847 5846 5845 5845 5844 5843 5842 5841 5840 5839 5839 5838 5837 5836 5835 5834 5833 5832 5832
5862 5862 5861 5859 5858 5857 5856 5855 5854 5853 5852 5851 5850 5849 5848 5847 5846 5845 5845 5844 5843 5843 5842 5842 5841 5840 5839 5838 5837 5836 5835 5834 5834 5833 5832 5831 5830 5830 5829 5828 5827 5826 5825
5858 5857 5856 5855 5853 5852 5851 5850 5849 5848 5847 5846 5845 5844 5843 5842 5841 5840 5839 5838 5837 5837 5836 5835 5834 5833 5833 5832 5831 5830 5829 5828 5827 5826 5825 5824 5823 5822 5821 5820 5820 5819 5818
5853 5852 5851 5849 5848 5847 5846 5845 5843 5842 5841 5840 5839 5838 5837 5836 5834 5833 5833 5832 5831 5830 5829 5828 5828 5827 5826 5824 5823 5822 5821 5820 5819 5818 5817 5816 5815 5814 5813 5813 5812 5811 5810
5848 5847 5845 5843 5842 5841 5840 5839 5838 5836 5835 5834 5833 5832 5831 5829 5828 5827 5826 5825 5824 5823 5822 5821 5820 5819 5818 5817 5816 5815 5814 5813 5811 5810 5809 5808 5807 5806 5805 5804 5803 5802 5801
5842 5840 5839 5837 5836 5834 5833 5832 5831 5830 5828 5827 5826 5825 5824 5823 5822 5820 5819 5818 5817 5816 5815 5814 5813 5812 5811 5809 5808 5806 5806 5805 5804 5803 5801 5800 5798 5797 5796 5795 5794 5793 5792
5835 5833 5831 5830 5828 5827 5826 5824 5823 5822 5821 5820 5819 5817 5816 5815 5814 5813 5812 5810 5809 5808 5807 5806 5804 5804 5803 5801 5799 5798 5797 5796 5795 5794 5792 5791 5789 5788 5787 5785 5784 5783 5782
5828 5825 5824 5822 5821 5819 5818 5817 5815 5814 5813 5812 5810 5809 5808 5807 5806 5804 5803 5802 5801 5800 5798 5797 5796 5795 5794 5792 5791 5789 5788 5787 5786 5784 5783 5781 5780 5778 5777 5775 5774 5773 5772
5820 5818 5816 5814 5812 5811 5809 5808 5807 5805 5804 5803 5802 5800 5799 5798 5797 5795 5794 5793 5792 5790 5789 5788 5787 5785 5784 5783 5781 5780 5778 5777 5776 5775 5773 5771 5770 5768 5766 5765 5764 5763 5762
5812 5810 5808 5806 5804 5803 5801 5800 5798 5797 5795 5794 5793 5792 5790 5789 5788 5786 5785 5784 5782 5781 5779 5778 5777 5776 5774 5773 5772 5770 5769 5767 5766 5765 5763 5761 5760 5758 5756 5755 5754 5752 5751